Content
SEND FEEDBACK

Daily
Averages
Monthly
Summary
United States of America

HIBBING, MINNESOTA


Home > North America > United States > Minnesota
Elevation: 1461 feet     Latitude: 47 25N     Longitude: 092 55W

WEATHER
 
SELECT A DAY
Number of Records: 214,354;   Date Range: 1/1/95 - 4/15/14
 
SHARE

PRINT THIS DATA

[ ← Previous Day ]
WEATHER ALMANAC - JANUARY 31, 2013
[ Next Day → ]
[ °C ]   °F
Weather ElementAverageHighLow
Temperature-1.1 °F3.9 °F (1:53 am)-15 °F (11:53 pm)
Dewpoint-9.2 °F-2.9 °F (1:53 am)-22 °F (11:53 pm)
Humidity68.5 %77 % (11:25 pm)62 % (5:53 pm)
Barometer29.94 in30.24 in (11:53 pm)29.72 in (4:45 am)
Wind Speed16.5 mph23 mph (10:29 am)
Wind Gust26.5 mph (12:53 pm)
Weather ElementAverage
Visibility4.9 mi
Wind DirectionNW (315.5 °)

Weather ElementTotal
Precipitation---
Heating Degree Days70.6 (Base 65)
Averaged from 44 records on January 31, 2013
WEATHER CONDITIONS BREAKOUT
WIND DIRECTION BREAKOUT
WEATHER BY HOUR - JANUARY 31, 2013
[ °C ]   °F
Local TimeTemperatureDewpointHumidityBarometerVisibilityWind DirectionWind SpeedGust SpeedPrecipitationEventsConditions
1:53 AM3.9 °F-2.9 °F73 %29.76 in7.0 miNNW (330°)16.1 mph23.0 mph0.00 inOvercast
2:53 AM3.9 °F-4.0 °F70 %29.78 in5.0 miNNW (330°)15.0 mph0.00 inHaze
3:53 AM3.0 °F-5.1 °F69 %29.80 in10.0 miNNW (340°)15.0 mphOvercast
4:45 AM3.2 °F-5.8 °F66 %29.72 in8.0 miNNW (330°)13.8 mph0.00 inSnowLight Snow
4:53 AM3.0 °F-5.1 °F69 %29.83 in5.0 miNNW (330°)17.3 mph0.00 inSnowLight Snow
5:04 AM1.4 °F-5.8 °F72 %29.72 in2.5 miNNW (340°)16.1 mph0.00 inSnowLight Snow
5:24 AM1.4 °F-5.8 °F72 %29.73 in3.0 miNNW (330°)15.0 mph0.00 inSnowLight Snow
5:40 AM1.4 °F-5.8 °F72 %29.73 in2.5 miNW (310°)13.8 mph0.00 inSnowLight Snow
5:53 AM1.0 °F-5.1 °F75 %29.84 in1.8 miNW (320°)16.1 mph0.00 inSnowLight Snow
6:03 AM1.4 °F-5.8 °F72 %29.74 in2.5 miNW (320°)17.3 mph0.00 inSnowLight Snow
6:24 AM1.4 °F-5.8 °F72 %29.74 in3.0 miNW (320°)13.8 mph0.00 inSnowLight Snow
6:53 AM0.0 °F-7.1 °F72 %29.87 in3.0 miNW (320°)16.1 mph0.00 inSnowLight Snow
7:32 AM-0.4 °F-7.6 °F72 %29.78 in3.0 miNW (320°)15.0 mph0.00 inSnowLight Snow
7:53 AM0.0 °F-7.1 °F72 %29.90 in2.5 miNNW (330°)15.0 mph0.00 inSnowLight Snow
8:04 AM-0.4 °F-7.6 °F72 %29.80 in3.0 miNW (320°)15.0 mph0.00 inSnowLight Snow
8:53 AM-0.9 °F-8.0 °F72 %29.94 in2.5 miNW (320°)15.0 mph0.00 inSnowLight Snow
9:03 AM-0.4 °F-7.6 °F72 %29.83 in5.0 miNW (310°)15.0 mph0.00 inMostly Cloudy
9:53 AM0.0 °F-9.0 °F66 %29.96 in5.0 miNW (310°)17.3 mph0.00 inOvercast
10:29 AM-0.4 °F-9.4 °F66 %29.87 in2.0 miNW (310°)23.0 mph0.00 inSnowBlowing Snow
10:38 AM-0.4 °F-9.4 °F66 %29.87 in1.5 miNW (320°)23.0 mph0.00 inOvercast
10:53 AM0.0 °F-9.0 °F66 %29.99 in1.8 miNW (320°)19.6 mph0.00 inSnowLight Snow
11:02 AM-0.4 °F-9.4 °F66 %29.88 in2.0 miNW (310°)20.7 mph0.00 inSnowLight Snow
11:13 AM-0.4 °F-7.6 °F72 %29.89 in1.5 miNW (320°)16.1 mph0.00 inSnowLight Snow
11:24 AM1.4 °F-7.6 °F66 %29.89 in2.5 miNW (310°)20.7 mph24.2 mph0.00 inSnowLight Snow
11:39 AM1.4 °F-7.6 °F66 %29.89 in1.2 miNW (320°)18.4 mph0.00 inSnowLight Snow
11:45 AM1.4 °F-7.6 °F66 %29.89 in2.0 miNW (320°)18.4 mph0.00 inSnowBlowing Snow
11:53 AM1.0 °F-8.0 °F66 %30.01 in3.0 miNW (320°)20.7 mph0.00 inSnowBlowing Snow
12:02 PM1.4 °F-7.6 °F66 %29.90 in4.0 miNW (310°)18.4 mphSnowBlowing Snow
12:24 PM1.4 °F-7.6 °F66 %29.90 in2.5 miNW (310°)17.3 mphSnowBlowing Snow
12:31 PM1.4 °F-7.6 °F66 %29.90 in5.0 miNW (310°)16.1 mph23.0 mphSnowBlowing Snow
12:53 PM1.9 °F-8.0 °F63 %30.02 in3.0 miNW (310°)19.6 mph26.5 mphSnowBlowing Snow
1:53 PM1.0 °F-8.0 °F66 %30.04 in5.0 miNW (310°)19.6 mph25.3 mphSnowBlowing Snow
2:53 PM1.9 °F-8.0 °F63 %30.05 in5.0 miNW (310°)16.1 mphSnowBlowing Snow
3:53 PM1.0 °F-8.0 °F66 %30.08 in5.0 miNW (320°)20.7 mphHaze
4:53 PM0.0 °F-9.0 °F66 %30.10 in10.0 miWNW (300°)17.3 mph25.3 mphOvercast
5:53 PM-0.9 °F-11.0 °F62 %30.14 in10.0 miNW (310°)13.8 mphMostly Cloudy
6:53 PM-2.9 °F-11.9 °F65 %30.16 in10.0 miNW (310°)17.3 mphClear
7:53 PM-6.0 °F-15.0 °F65 %30.19 in10.0 miNW (310°)16.1 mph23.0 mphClear
8:53 PM-9.0 °F-17.0 °F68 %30.20 in10.0 miWNW (300°)10.4 mph20.7 mphClear
9:48 PM-11.2 °F-18.4 °F70 %30.09 in10.0 miWNW (300°)12.7 mphMostly Cloudy
9:53 PM-11.0 °F-18.9 °F68 %30.22 in10.0 miWNW (300°)16.1 mph20.7 mphMostly Cloudy
10:53 PM-13.0 °F-20.9 °F68 %30.23 in9.0 miNW (310°)15.0 mph19.6 mphOvercast
11:25 PM-14.8 °F-20.2 °F77 %30.09 in6.0 miWNW (290°)11.5 mphHaze
11:53 PM-15.0 °F-22.0 °F71 %30.24 in9.0 miWNW (290°)8.1 mphOvercast
Hourly data recorded from KHIB, located 4.13 miles away from Hibbing, Minnesota







STORIES FROM OUR PARTNERS